EDT,Max TemperatureF,Mean TemperatureF,Min TemperatureF,Max Dew PointF,MeanDew PointF,Min DewpointF,Max Humidity, Mean Humidity, Min Humidity, Max Sea Level PressureIn, Mean Sea Level PressureIn, Min Sea Level PressureIn, Max VisibilityMiles, Mean VisibilityMiles, Min VisibilityMiles, Max Wind SpeedMPH, Mean Wind SpeedMPH, Max Gust SpeedMPH,PrecipitationIn, CloudCover, Events, WindDirDegrees
2013-10-1,90,84,78,76,75,70,89,76,63,30.01,29.96,29.92,10,10,2,16,10,23,0.24,4,Rain-Thunderstorm,105
2013-10-2,88,80,73,77,73,48,94,81,34,30.01,29.98,29.94,10,9,1,20,7,26,0.41,5,Rain-Thunderstorm,106
2013-10-3,88,82,77,78,74,49,89,77,31,30.04,29.99,29.92,10,9,1,24,11,30,0.54,6,Rain-Thunderstorm,100
2013-10-4,88,85,82,76,75,73,82,75,67,30.03,30.00,29.96,10,10,10,14,11,,0.00,5,,90
2013-10-5,86,83,80,74,72,69,79,72,63,30.01,29.97,29.92,10,10,10,12,8,,0.00,4,,73
2013-10-6,87,82,78,74,70,35,82,70,20,29.97,29.92,29.89,10,10,10,9,5,,0.00,3,,129
2013-10-7,90,84,79,76,74,72,79,73,63,29.93,29.89,29.85,10,10,10,15,7,16,0.00,3,,235
2013-10-8,88,82,77,79,75,72,89,78,69,29.97,29.92,29.87,10,10,4,13,6,31,0.08,4,Rain,267
2013-10-9,87,82,77,73,70,63,84,70,49,30.00,29.96,29.92,10,10,10,7,4,,0.00,4,,338
2013-10-10,87,82,78,75,73,70,89,75,61,30.02,29.98,29.94,10,10,10,13,6,16,0.01,4,Rain,45
2013-10-11,88,82,78,74,71,68,87,70,53,30.00,29.96,29.93,10,10,10,13,7,16,0.00,2,,63
2013-10-12,87,82,78,70,66,62,76,59,44,30.03,29.99,29.95,10,10,3,13,9,,0.00,1,,59
2013-10-13,86,82,78,70,68,66,74,64,53,30.04,29.99,29.96,10,10,10,13,8,,0.00,3,,82
2013-10-14,86,80,77,69,66,62,76,62,46,30.01,29.96,29.91,10,10,10,12,8,16,0.00,0,,43
2013-10-15,86,80,75,72,68,34,79,67,18,29.96,29.92,29.88,10,10,10,12,6,17,0.00,2,,25
2013-10-16,87,82,77,73,69,65,84,67,51,29.96,29.92,29.89,10,10,10,10,7,,0.00,1,,20
2013-10-17,87,80,77,74,72,69,82,73,65,29.97,29.92,29.90,10,10,10,9,6,,0.00,4,,57
2013-10-18,88,82,78,76,74,71,85,76,63,29.96,29.92,29.89,10,10,10,14,8,,0.00,3,Rain,80
2013-10-19,88,82,78,76,74,71,87,75,61,29.96,29.92,29.88,10,10,10,13,8,,0.00,3,,144
2013-10-20,88,84,80,77,75,73,87,77,67,29.96,29.92,29.88,10,10,6,10,6,,0.04,3,Rain,187
2013-10-21,88,84,80,76,75,73,85,77,67,30.00,29.96,29.92,10,9,2,9,4,,0.00,2,,147
2013-10-22,88,84,80,76,74,70,87,76,69,29.96,29.91,29.86,10,10,6,12,6,,0.00,3,,153
2013-10-23,89,84,80,76,74,64,87,75,58,29.96,29.88,29.84,10,10,8,12,6,,0.05,4,Thunderstorm,288
2013-10-24,84,78,75,73,70,66,90,73,62,30.07,29.99,29.92,10,10,3,17,12,25,0.54,6,Rain,44
2013-10-25,82,79,77,68,66,63,71,65,60,30.13,30.09,30.05,10,10,10,17,14,26,0.00,4,,42
2013-10-26,84,78,75,67,65,64,73,65,54,30.13,30.08,30.04,10,10,10,16,12,25,0.00,3,,56
2013-10-27,82,78,75,66,65,64,73,65,56,30.08,30.04,30.00,10,10,10,15,9,22,0.00,3,,59
2013-10-28,84,80,75,69,67,60,82,70,46,30.12,30.07,30.02,10,10,10,13,9,20,0.00,2,,61
2013-10-29,84,80,75,71,68,64,83,69,51,30.16,30.11,30.06,10,10,10,17,11,25,0.00,1,,58
2013-10-30,84,80,75,70,67,65,82,67,55,30.15,30.10,30.05,10,10,10,17,11,23,0.00,1,,62
2013-10-31,86,82,77,74,70,67,87,69,59,30.09,30.03,29.98,10,10,10,17,11,22,0.00,2,,101